Location: Unspecified
(40.7945°N, 111.1337°W)
Time: 09:29:26
(UTC-06:00)

Vanguard 1 - Pass Details

Date: 29 June 2019
Orbit: 655 x 3829 km, 34.2° (Epoch: 20 August)

Event Time Altitude Azimuth Distance (km) Brightness Sun altitude
Rises 23:30:36 0° 208° (SSW) 7,515 14.3 -20.4°
Reaches altitude 10° 23:36:13 10° 200° (SSW) 6,732 13.9 -20.9°
Maximum altitude 23:55:44 36° 143° (SE) 4,943 13.0 -22.5°
Drops below altitude 10° 00:12:33 10° 86° (E) 5,905 13.9 -23.7°
Sets 00:16:56 0° 79° (E) 6,549 14.2 -23.9°
